Regional Weather Roundup
Issued by NWS

Home | Current Version | Previous Version | Text Only | Print | Product List | Glossary Off
Versions: 1 2 3 4 5 6 7 8 9 10 11 12 13 14 15 16 17 18 19 20 21 22 23 24 25 26 27 28 29 30 31 32 33 34 35 36 37 38 39 40 41 42 43 44 45 46 47 48 49 50

000
ASUS44 KMEG 010310
RWRTN
TENNESSEE HOURLY STATE WEATHER ROUNDUP
NATIONAL WEATHER SERVICE MEMPHIS TN
1000 PM CDT FRI SEP 30 2016

TNZ002-004-019-021-049-052-054-088>092-010400-
WEST TENNESSEE

CITY           SKY/WX    TMP DP  RH WIND       PRES   REMARKS
MEMPHIS INTL   MOCLDY    68  56  65 VRB3      30.06S
NWS MEMPHIS      N/A     64 N/A N/A MISG        N/A
JACKSON          N/A    N/A N/A N/A MISG      30.06R
DYERSBURG      MOCLDY   N/A N/A N/A MISG        N/A
UNION CITY     PTCLDY    61  59  94 CALM      30.03F
PARIS          PTCLDY    55  55 100 CALM      30.05S
HUNTINGDON     CLOUDY    63  59  88 CALM      30.04R
LEXINGTON      CLOUDY    61  57  88 CALM      30.05S
$$

TNZ008-025-027-028-033-062-065-066-010400-
NORTH MIDDLE TENNESSEE

CITY           SKY/WX    TMP DP  RH WIND       PRES   REMARKS
NASHVILLE      CLOUDY    61  57  87 CALM      30.04F
PORTLAND       PTCLDY    55  55 100 S6        30.03F
CLARKSVILLE    CLOUDY    60  57  89 SW5       30.03F
SMYRNA         CLOUDY    62  54  74 S3        30.05F
COOKEVILLE     MOCLDY    54  54 100 CALM      30.05S
GALLATIN       CLOUDY    59  59 100 CALM      30.06F
CROSSVILLE     CLOUDY    54  50  86 CALM      30.08S
$$

TNZ061-075-076-078-094-096-097-010400-
SOUTH MIDDLE TENNESSEE

CITY           SKY/WX    TMP DP  RH WIND       PRES   REMARKS
FAYETTEVILLE   CLOUDY    57  52  82 CALM      30.07S
TULLAHOMA      PTCLDY    54  52  94 CALM      30.08S
WINCHESTER     MOCLDY    52  50  93 CALM      30.08S
MCMINNVILLE    CLEAR     57  54  88 CALM      30.07S
COLUMBIA       MOCLDY   N/A N/A N/A SW5       30.04S
SHELBYVILLE    CLEAR     57  55  94 CALM      30.07S
$$

TNZ017-018-042-046-047-010400-
NORTHEAST TENNESSEE

CITY           SKY/WX    TMP DP  RH WIND       PRES   REMARKS
TRI CITIES     PTCLDY    55  51  86 N5        30.06S
ELIZABETHTON   CLEAR     54  52  94 CALM      30.06S
$$

TNZ012-013-036-069-073-074-010400-
CENTRAL EAST TENNESSEE

CITY           SKY/WX    TMP DP  RH WIND       PRES   REMARKS
KNOXVILLE      CLEAR     58  48  69 W6        30.05R
OAK RIDGE      CLEAR     58  50  75 CALM      30.07S
DOWNTOWN KNOXV CLEAR     54  52  94 CALM      30.06R
GATLINBURG     CLEAR     52  46  82 CALM      30.06S
MORRISTOWN     MOCLDY    57  46  67 CALM      30.06R
JACKSBORO      CLEAR     55  50  82 CALM      30.09S
$$

TNZ083-085-099-010400-
SOUTHEAST TENNESSEE

CITY           SKY/WX    TMP DP  RH WIND       PRES   REMARKS
CHATTANOOGA    PTCLDY    61  50  67 CALM      30.06R
$$

SKY/WX REPORTED AS FAIR MEANS FEW OR NO CLOUDS BELOW
12 THOUSAND FEET.





USA.gov is the U.S. government's official web portal to all federal, state and local government web resources and services.